Mojave, CA

11:26 PM PST on December 09, 2019 (GMT -0800)
Mojave

Weather History for KMHV - May, 2019

Change the Weather History Date:

Thursday, May 23, 2019

  Actual Average Record
Temperature  
Mean Temperature 56 °F -  
Max Temperature 60 °F 83 °F 102 °F (2001)
Min Temperature 51 °F 59 °F 42 °F (1980)
Degree Days  
Heating Degree Days 10    
Growing Degree Days 6 (Base 50)    
Moisture  
Dew Point 44 °F    
Average Humidity 67    
Maximum Humidity 82    
Minimum Humidity 54    
Precipitation  
Precipitation 0.01 in - - ()
Sea Level Pressure  
Sea Level Pressure 29.87 in    
Wind  
Wind Speed 14 mph (SW)    
Max Wind Speed 29 mph    
Max Gust Speed 36 mph    
Visibility 10 miles    
Events      
Averages and records for this station are not official NWS values.
T = Trace of Precipitation, MM = Missing Value Source: NWS Daily Summary

Daily Weather History Graph

Daily Weather History Graph

Search for Another Location

Airport or City:

Astronomy

May. 23, 2019 Rise Set
Actual Time 5:43 AM PDT 7:55 PM PDT
Civil Twilight 5:15 AM PDT 8:24 PM PDT
Nautical Twilight 4:40 AM PDT 8:59 PM PDT
Astronomical Twilight 4:02 AM PDT 9:37 PM PDT
Moon No Moon Rise 9:52 AM PDT (5/23)
Length of Visible Light 15h 09m
Length of Day
14h 11m
Waning Gibbous, 76% of the Moon is Illuminated
May 23
Waning Gibbous
May 26
Last Quarter
Jun 3
New
Jun 9
First Quarter
Jun 17
Full

Hourly Weather History & Observations

Time (PDT) Temp. Dew Point Humidity Pressure Visibility Wind Dir Wind Speed Gust Speed Precip Events Conditions
12:00 AM 51.8 °F 39.2 °F 62% 29.76 in 10.0 mi West 12.7 mph 24.2 mph N/A   Overcast
12:20 AM 51.8 °F 39.2 °F 62% 29.76 in 10.0 mi WNW 10.4 mph 24.2 mph N/A   Mostly Cloudy
12:40 AM 51.8 °F 39.2 °F 62% 29.76 in 10.0 mi West 13.8 mph 20.7 mph N/A   Mostly Cloudy
1:00 AM 53.6 °F 37.4 °F 54% 29.77 in 10.0 mi Variable 5.8 mph 13.8 mph N/A   Overcast
1:20 AM 53.6 °F 39.2 °F 58% 29.77 in 10.0 mi West 17.3 mph - N/A   Overcast
1:40 AM 51.8 °F 39.2 °F 62% 29.78 in 10.0 mi WSW 19.6 mph - N/A   Overcast
2:00 AM 53.6 °F 39.2 °F 58% 29.78 in 10.0 mi SW 15.0 mph - N/A   Overcast
2:20 AM 51.8 °F 39.2 °F 62% 29.78 in 10.0 mi SW 15.0 mph - N/A   Overcast
2:40 AM 51.8 °F 39.2 °F 62% 29.78 in 10.0 mi SW 13.8 mph - N/A   Overcast
3:00 AM 51.8 °F 39.2 °F 62% 29.79 in 10.0 mi SSW 10.4 mph - N/A   Overcast
3:20 AM 51.8 °F 39.2 °F 62% 29.79 in 10.0 mi SW 15.0 mph - N/A   Overcast
3:40 AM 51.8 °F 41.0 °F 67% 29.79 in 10.0 mi SW 12.7 mph - N/A   Overcast
4:00 AM 51.8 °F 41.0 °F 67% 29.79 in 10.0 mi SW 10.4 mph - N/A   Overcast
4:20 AM 51.8 °F 41.0 °F 67% 29.79 in 10.0 mi WSW 9.2 mph 17.3 mph N/A   Overcast
4:40 AM 51.8 °F 41.0 °F 67% 29.79 in 10.0 mi WSW 3.5 mph - N/A   Overcast
5:00 AM 51.8 °F 41.0 °F 67% 29.78 in 10.0 mi SW 5.8 mph - N/A   Overcast
5:20 AM 53.6 °F 41.0 °F 62% 29.78 in 10.0 mi WSW 10.4 mph - N/A   Overcast
5:40 AM 53.6 °F 41.0 °F 62% 29.79 in 10.0 mi Variable 4.6 mph - N/A   Overcast
6:00 AM 53.6 °F 41.0 °F 62% 29.79 in 10.0 mi SW 8.1 mph - N/A   Overcast
6:20 AM 53.6 °F 42.8 °F 67% 29.79 in 10.0 mi West 6.9 mph 15.0 mph N/A   Overcast
6:40 AM 53.6 °F 42.8 °F 67% 29.80 in 10.0 mi WSW 8.1 mph - N/A   Overcast
7:00 AM 51.8 °F 42.8 °F 71% 29.81 in 10.0 mi SSW 8.1 mph - N/A   Overcast
7:20 AM 51.8 °F 42.8 °F 71% 29.82 in 10.0 mi SW 9.2 mph - N/A   Overcast
7:40 AM 51.8 °F 42.8 °F 71% 29.82 in 10.0 mi SW 8.1 mph - N/A   Mostly Cloudy
8:00 AM 51.8 °F 42.8 °F 71% 29.83 in 10.0 mi SSW 10.4 mph - N/A   Overcast
8:20 AM 51.8 °F 42.8 °F 71% 29.83 in 10.0 mi SW 9.2 mph - N/A   Overcast
8:40 AM 53.6 °F 42.8 °F 67% 29.84 in 10.0 mi SSW 10.4 mph - N/A   Overcast
9:00 AM 51.8 °F 44.6 °F 76% 29.85 in 10.0 mi SSW 12.7 mph - N/A   Overcast
9:20 AM 53.6 °F 44.6 °F 72% 29.85 in 10.0 mi SSW 16.1 mph - N/A   Overcast
9:40 AM 53.6 °F 44.6 °F 72% 29.86 in 10.0 mi SSW 16.1 mph - N/A   Mostly Cloudy
10:00 AM 53.6 °F 44.6 °F 72% 29.87 in 10.0 mi SW 10.4 mph 16.1 mph N/A   Mostly Cloudy
10:20 AM 55.4 °F 44.6 °F 67% 29.87 in 10.0 mi SW 12.7 mph - N/A   Overcast
10:40 AM 55.4 °F 44.6 °F 67% 29.87 in 10.0 mi SW 13.8 mph - N/A   Overcast
11:00 AM 55.4 °F 44.6 °F 67% 29.88 in 10.0 mi SSW 18.4 mph - N/A   Mostly Cloudy
11:20 AM 59.0 °F 44.6 °F 59% 29.88 in 10.0 mi SW 18.4 mph - N/A   Mostly Cloudy
11:40 AM 59.0 °F 44.6 °F 59% 29.88 in 10.0 mi SW 17.3 mph 23.0 mph N/A   Mostly Cloudy
12:00 PM 59.0 °F 44.6 °F 59% 29.89 in 10.0 mi SW 17.3 mph - N/A   Overcast
12:20 PM 59.0 °F 44.6 °F 59% 29.89 in 10.0 mi SSW 11.5 mph 20.7 mph N/A   Overcast
12:40 PM 60.8 °F 44.6 °F 55% 29.89 in 10.0 mi SW 15.0 mph 23.0 mph N/A   Overcast
1:00 PM 59.0 °F 44.6 °F 59% 29.89 in 10.0 mi SSW 18.4 mph - N/A   Overcast
1:20 PM 60.8 °F 44.6 °F 55% 29.89 in 10.0 mi SW 21.9 mph 29.9 mph N/A   Overcast
1:40 PM 60.8 °F 44.6 °F 55% 29.89 in 10.0 mi SW 21.9 mph 29.9 mph N/A   Overcast
2:00 PM 59.0 °F 44.6 °F 59% 29.90 in 10.0 mi SSW 21.9 mph 31.1 mph N/A   Overcast
2:20 PM 59.0 °F 44.6 °F 59% 29.90 in 10.0 mi SSW 19.6 mph 32.2 mph N/A   Overcast
2:40 PM 59.0 °F 44.6 °F 59% 29.90 in 10.0 mi SW 20.7 mph 26.5 mph N/A   Overcast
3:00 PM 59.0 °F 44.6 °F 59% 29.89 in 10.0 mi SW 24.2 mph 34.5 mph N/A   Overcast
3:20 PM 60.8 °F 44.6 °F 55% 29.89 in 10.0 mi SSW 25.3 mph 33.4 mph N/A   Overcast
3:40 PM 60.8 °F 44.6 °F 55% 29.89 in 10.0 mi SW 28.8 mph 35.7 mph N/A   Mostly Cloudy
4:00 PM 59.0 °F 44.6 °F 59% 29.90 in 10.0 mi SSW 21.9 mph 33.4 mph N/A   Mostly Cloudy
4:20 PM 59.0 °F 44.6 °F 59% 29.90 in 10.0 mi SW 20.7 mph 34.5 mph N/A   Mostly Cloudy
4:40 PM 59.0 °F 44.6 °F 59% 29.91 in 10.0 mi SW 20.7 mph 28.8 mph N/A   Overcast
5:00 PM 57.2 °F 46.4 °F 67% 29.91 in 10.0 mi SSW 19.6 mph 32.2 mph N/A   Overcast
5:20 PM 57.2 °F 44.6 °F 63% 29.91 in 10.0 mi SW 20.7 mph 32.2 mph N/A   Mostly Cloudy
5:40 PM 57.2 °F 46.4 °F 67% 29.91 in 10.0 mi SW 19.6 mph 29.9 mph N/A   Mostly Cloudy
6:00 PM 55.4 °F 46.4 °F 72% 29.91 in 10.0 mi SSW 19.6 mph 31.1 mph N/A   Mostly Cloudy
6:20 PM 55.4 °F 46.4 °F 72% 29.91 in 10.0 mi SW 17.3 mph 25.3 mph N/A   Mostly Cloudy
6:40 PM 53.6 °F 48.2 °F 82% 29.92 in 10.0 mi SW 17.3 mph 27.6 mph N/A   Mostly Cloudy
7:00 PM 53.6 °F 48.2 °F 82% 29.94 in 10.0 mi SW 16.1 mph - 0.01 in   Overcast
7:20 PM 53.6 °F 48.2 °F 82% 29.94 in 10.0 mi SW 17.3 mph 27.6 mph N/A   Overcast
7:40 PM 53.6 °F 48.2 °F 82% 29.94 in 10.0 mi SW 13.8 mph - N/A   Overcast
8:00 PM 51.8 °F 46.4 °F 82% 29.95 in 10.0 mi SW 19.6 mph - N/A   Overcast
8:20 PM 51.8 °F 46.4 °F 82% 29.94 in 10.0 mi SW 20.7 mph - N/A   Overcast
8:40 PM 51.8 °F 46.4 °F 82% 29.95 in 10.0 mi SW 18.4 mph - N/A   Overcast
9:00 PM 51.8 °F 46.4 °F 82% 29.96 in 10.0 mi SW 13.8 mph 19.6 mph N/A   Overcast
9:20 PM 51.8 °F 44.6 °F 76% 29.96 in 10.0 mi SW 15.0 mph - N/A   Overcast
9:40 PM 51.8 °F 44.6 °F 76% 29.97 in 10.0 mi SW 12.7 mph 18.4 mph N/A   Overcast
10:00 PM 51.8 °F 46.4 °F 82% 29.97 in 10.0 mi WSW 11.5 mph - N/A   Overcast
10:20 PM 51.8 °F 46.4 °F 82% 29.97 in 10.0 mi WSW 9.2 mph 17.3 mph N/A   Overcast
10:40 PM 51.8 °F 46.4 °F 82% 29.98 in 10.0 mi SW 11.5 mph - N/A   Overcast
11:00 PM 53.6 °F 46.4 °F 77% 29.98 in 10.0 mi West 15.0 mph - N/A   Overcast
11:20 PM 55.4 °F 46.4 °F 72% 29.98 in 10.0 mi SW 9.2 mph 15.0 mph N/A   Overcast
11:40 PM 53.6 °F 46.4 °F 77% 29.98 in 10.0 mi SSW 9.2 mph - N/A   Overcast